Location: Nairn
(57.5833°N, 3.8667°W)
Time: 23:25:25
(UTC+00:00)

Tiros 1 - Pass Details

Date: 28 November 2020
Orbit: 630 x 663 km, 48.4° (Epoch: 22 January)

Event Time Altitude Azimuth Distance (km) Brightness Sun altitude
Rises 21:30:25 0° 266° (W) 2,981 11.1 -44.5°
Enters shadow 21:30:41 - 264° (W) 2,903 11.0 -44.5°
Reaches altitude 10° 21:34:38 10° 230° (SW) 2,056 - -44.9°
Maximum altitude 21:35:49 11° 216° (SW) 1,995 - -45.1°
Drops below altitude 10° 21:37:00 10° 201° (SSW) 2,048 - -45.2°
Sets 21:41:11 0° 165° (SSE) 2,943 - -45.6°
